Weather History for Ann Arbor, MI

Change the Weather History Date:

Saturday, January 11, 2014

  Actual Average Record
Temperature  
Mean Temperature 38 °F -  
Max Temperature 41 °F 29 °F 57 °F (2013)
Min Temperature 34 °F 14 °F 3 °F (1999)
Degree Days  
Heating Degree Days 28    
Moisture  
Dew Point 36 °F    
Average Humidity 94    
Maximum Humidity 100    
Minimum Humidity 75    
Precipitation  
Precipitation 0.14 in - - ()
Sea Level Pressure  
Sea Level Pressure 29.49 in    
Wind  
Wind Speed 9 mph (SW)    
Max Wind Speed 22 mph    
Max Gust Speed 29 mph    
Visibility 5 miles    
Events Fog , Rain    
Averages and records for this station are not official NWS values.
T = Trace of Precipitation, MM = Missing Value Source: NWS Daily Summary

Daily Weather History Graph

Daily Weather History Graph

Search for Another Location

Airport:

Trip Planner

Search our weather history database for the weather conditions in past years. The results will help you decide how hot, cold, wet, or windy it might be!

Date:

Astronomy

Jan. 11, 2014 Rise Set
Actual Time 8:02 AM EST 5:23 PM EST
Civil Twilight 7:31 AM EST 5:54 PM EST
Nautical Twilight 6:56 AM EST 6:29 PM EST
Astronomical Twilight 6:22 AM EST 7:03 PM EST
Moon 2:07 PM EST (1/11) 4:05 AM EST (1/11)
Length of Visible Light 10h 23m
Length of Day
9h 20m
Waxing Gibbous, 83% of the Moon is Illuminated
Jan 11
Waxing Gibbous
Jan 15
Full
Jan 24
Last Quarter
Jan 30
New
Feb 6
First Quarter

Hourly Weather History & Observations

Time (EST) Temp. Windchill Dew Point Humidity Pressure Visibility Wind Dir Wind Speed Gust Speed Precip Events Conditions
12:40 AM 37.4 °F 32.1 °F 37.4 °F 100% 29.62 in 1.8 mi SSE 6.9 mph - 0.02 in Rain Light Rain
12:50 AM 37.4 °F 32.1 °F 37.4 °F 100% 29.62 in 1.0 mi SSE 6.9 mph - 0.02 in Rain Light Rain
12:53 AM 37.9 °F 33.5 °F 37.9 °F 100% 29.64 in 1.0 mi South 5.8 mph - 0.03 in Rain Light Rain
1:09 AM 39.2 °F 34.2 °F 37.4 °F 93% 29.60 in 0.8 mi South 6.9 mph - 0.00 in Rain Light Rain
1:25 AM 39.2 °F 34.2 °F 39.2 °F 100% 29.60 in 1.5 mi South 6.9 mph - 0.01 in Rain Light Rain
1:32 AM 39.2 °F 33.0 °F 39.2 °F 100% 29.59 in 3.0 mi South 9.2 mph - 0.02 in Rain Light Rain
1:53 AM 41.0 °F 34.3 °F 39.9 °F 96% 29.60 in 4.0 mi SSW 11.5 mph - 0.02 in Rain Light Rain
2:08 AM 39.2 °F 33.0 °F 39.2 °F 100% 29.58 in 2.0 mi SSW 9.2 mph - 0.01 in Rain Light Rain
2:17 AM 39.2 °F 33.0 °F 39.2 °F 100% 29.58 in 1.2 mi SSW 9.2 mph - 0.01 in Rain Light Rain
2:28 AM 39.2 °F 34.2 °F 39.2 °F 100% 29.57 in 0.5 mi SSW 6.9 mph - 0.01 in Fog Fog
2:53 AM 39.0 °F 34.8 °F 39.0 °F 100% 29.58 in 0.2 mi SSW 5.8 mph - 0.01 in Fog Fog
3:53 AM 39.9 °F 35.1 °F 39.9 °F 100% 29.55 in 0.2 mi SSW 6.9 mph - N/A Fog Fog
4:53 AM 39.0 °F 33.4 °F 39.0 °F 100% 29.52 in 0.2 mi SSW 8.1 mph - N/A Fog Fog
5:53 AM 39.0 °F 33.4 °F 39.0 °F 100% 29.49 in 0.2 mi SSW 8.1 mph - N/A Fog Fog
6:53 AM 39.0 °F 34.8 °F 39.0 °F 100% 29.45 in 0.2 mi South 5.8 mph - N/A Fog Fog
7:53 AM 39.0 °F 33.4 °F 37.9 °F 96% 29.44 in 0.2 mi SSW 8.1 mph - N/A Fog Fog
8:53 AM 37.9 °F 33.5 °F 37.9 °F 100% 29.42 in 0.5 mi SW 5.8 mph - 0.03 in Fog , Rain Light Rain
9:14 AM 37.4 °F 33.8 °F 37.4 °F 100% 29.39 in 1.0 mi WSW 4.6 mph - 0.03 in Rain Light Rain
9:21 AM 37.4 °F 34.9 °F 37.4 °F 100% 29.38 in 0.5 mi WSW 3.5 mph - 0.04 in Fog , Rain Light Rain
9:45 AM 39.2 °F 35.9 °F 39.2 °F 100% 29.38 in 1.5 mi SSW 4.6 mph - 0.05 in Rain Light Rain
9:53 AM 39.0 °F 34.8 °F 39.0 °F 100% 29.40 in 1.8 mi SSW 5.8 mph - 0.05 in   Overcast
10:00 AM 39.2 °F 35.0 °F 39.2 °F 100% 29.38 in 0.8 mi South 5.8 mph - N/A   Overcast
10:46 AM 39.2 °F 33.0 °F 39.2 °F 100% 29.36 in 1.8 mi SW 9.2 mph - 0.00 in Rain Light Rain
10:53 AM 39.9 °F 34.5 °F 39.9 °F 100% 29.37 in 2.0 mi SW 8.1 mph - 0.00 in Rain Light Rain
11:53 AM 39.9 °F 33.9 °F 39.0 °F 97% 29.36 in 2.0 mi SW 9.2 mph - 0.00 in   Overcast
12:00 PM 39.2 °F 33.0 °F 39.2 °F 100% 29.34 in 5.0 mi SW 9.2 mph - N/A   Overcast
12:35 PM 39.2 °F 32.5 °F 39.2 °F 100% 29.33 in 8.0 mi WSW 10.4 mph - N/A   Overcast
12:53 PM 39.0 °F 32.8 °F 37.9 °F 96% 29.33 in 10.0 mi WSW 9.2 mph - N/A   Overcast
1:53 PM 37.9 °F 27.3 °F 37.0 °F 97% 29.35 in 9.0 mi West 21.9 mph 25.3 mph 0.00 in   Overcast
2:53 PM 37.0 °F 26.7 °F 34.0 °F 89% 29.37 in 10.0 mi West 19.6 mph 24.2 mph 0.00 in   Overcast
3:53 PM 36.0 °F 26.0 °F 33.1 °F 89% 29.41 in 10.0 mi West 17.3 mph 25.3 mph 0.00 in   Overcast
4:02 PM 35.6 °F 25.9 °F 33.8 °F 93% 29.40 in 10.0 mi West 16.1 mph - N/A   Overcast
4:53 PM 36.0 °F 26.3 °F 30.9 °F 82% 29.45 in 10.0 mi West 16.1 mph 23.0 mph N/A   Overcast
5:27 PM 35.6 °F 24.8 °F 30.2 °F 81% 29.45 in 10.0 mi West 19.6 mph - N/A   Overcast
5:53 PM 35.1 °F 24.8 °F 30.9 °F 85% 29.49 in 10.0 mi West 17.3 mph 27.6 mph N/A   Overcast
6:53 PM 35.1 °F 24.8 °F 30.0 °F 82% 29.52 in 10.0 mi West 17.3 mph 28.8 mph N/A   Overcast
7:53 PM 34.0 °F 24.2 °F 30.0 °F 85% 29.55 in 10.0 mi West 15.0 mph 21.9 mph N/A   Overcast
8:06 PM 35.6 °F 26.2 °F 30.2 °F 81% 29.54 in 10.0 mi West 15.0 mph - N/A   Overcast
8:53 PM 34.0 °F 23.8 °F 28.9 °F 82% 29.58 in 10.0 mi West 16.1 mph 24.2 mph N/A   Overcast
9:53 PM 34.0 °F 23.8 °F 27.0 °F 75% 29.61 in 10.0 mi West 16.1 mph - N/A   Overcast
10:53 PM 34.0 °F 24.6 °F 28.0 °F 79% 29.65 in 10.0 mi West 13.8 mph - N/A   Overcast
11:53 PM 34.0 °F 24.6 °F 28.0 °F 79% 29.66 in 10.0 mi West 13.8 mph - N/A   Overcast